Location: Unspecified
(0.0000°N, 0.0000°E)
Time: 16:23:54
(UTC+00:00)

Courier 1B Rocket - Pass Details

Date: 28 November 2019
Orbit: 920 x 1202 km, 28.2° (Epoch: 12 December)

Event Time Altitude Azimuth Distance (km) Brightness Sun altitude
Rises 08:59:28 0° 266° (W) 3,594 7.6 43.7°
Reaches altitude 10° 09:02:36 10° 279° (W) 2,623 7.0 44.4°
Maximum altitude 09:07:36 25° 332° (NNW) 1,768 6.3 45.5°
Drops below altitude 10° 09:12:34 10° 26° (NNE) 2,603 7.3 46.6°
Sets 09:15:41 0° 39° (NE) 3,560 8.0 47.2°
